www.pogodaiklimat.ru
ПОГОДА в Латробе
Время
и дата
23:55 23.06
00:15 24.06
00:35 24.06
01:15 24.06
01:35 24.06
02:15 24.06
02:35 24.06
02:55 24.06
03:15 24.06
03:35 24.06
03:55 24.06
04:15 24.06
04:35 24.06
04:55 24.06
05:15 24.06
05:35 24.06
05:47 24.06
06:47 24.06
07:47 24.06
08:47 24.06
09:47 24.06
10:50 24.06
11:50 24.06
12:50 24.06
13:59 24.06
14:50 24.06
15:47 24.06
16:47 24.06
17:47 24.06
18:47 24.06
19:47 24.06
20:47 24.06
21:15 24.06
21:35 24.06
21:55 24.06
22:15 24.06
22:35 24.06
22:55 24.06
23:15 24.06
23:35 24.06
23:55 24.06
00:15 25.06
00:35 25.06
00:55 25.06
01:15 25.06
01:35 25.06
01:55 25.06
02:15 25.06
Ветер
(напр.,м/с)
Видим. Явления Облачность Т
(С)
Тd
(С)
f
(%)
Тe
(С)
Тes
(С)
Комфортность P
(гПа)
Po
(гПа)
Тmin
(С)
Tmax
(С)
R
(мм)
R24
(мм)
S
(см)
ЮЗ 2 16 км 8/8 1650 m
[Ac]
+21.0 +21.0 100 +27 +27 душно 965.3
ЮЗ 2 16 км 8/5 1800 m
[Ac]
+21.0 +20.0 94 +27 +27 душно 965.6
ЮЗ 2 16 км 8/8 1950 м +21.0 +20.0 94 +27 +27 душно 965.6
ЮЗ 2 16 км 8/8 1950 м +21.0 +20.0 94 +27 +27 душно 965.9
штиль 0 16 км 5/0 2100 m
[Ac]
+20.0 +19.0 94 +23 +23 комфорт 965.9
ЮЗ 2 16 км ясно +20.0 +19.0 94 +24 +24 комфорт 965.9
штиль 0 16 км 2/2 1200 м +19.0 +19.0 100 +21 +21 комфорт 966.2
штиль 0 16 км 5/5 690 м +19.0 +19.0 100 +21 +21 комфорт 966.2
ЮЗ 2 16 км 8/8 750 м +19.0 +19.0 100 +21 +21 комфорт 966.2
штиль 0 16 км 8/5 1080 m
[Ac]
+19.0 +19.0 100 +21 +21 комфорт 966.2
штиль 0 16 км 8/2 1140 m
[Ac]
+19.0 +18.0 94 +21 +21 комфорт 966.6
штиль 0 16 км 8/8 930 м +19.0 +18.0 94 +21 +21 комфорт 967.2
З 2 16 км 8/8 930 м +19.0 +18.0 94 +21 +21 комфорт 967.2
штиль 0 16 км 8/8 1380 м +19.0 +17.0 88 +20 +20 967.9
штиль 0 16 км 8/8 1410 м +18.0 +17.0 94 +18 +18 968.2
штиль 0 16 км ясно +18.0 +17.0 94 +18 +18 968.2
ЮЗ 3 32 км 5/5 1500 м +18.0 +17.0 94 +18 +18 968.2
нст 3 32 км 5/5 1500 м +19.0 +17.0 88 +21 +21 комфорт 969.5
СЗ 5
{8}
32 км 8/8 600 м +19.0 +15.0 78 +20 +20 970.1
З 3 32 км 8/8 900 м +21.0 +15.0 69 +25 +26 комфорт 970.8
С 5 32 км 5/5 1200 м +22.0 +14.0 60 +25 +28 комфорт 970.8
С 6 16 км 5/5 1200 м +23.0 +14.0 57 +26 +30 жарко 971.1
С 6 16 км 5/5 1320 м +24.0 +14.0 54 +26 +30 жарко 971.7
С 4 16 км 5/5 1650 м +24.0 +13.0 50 +26 +33 жарко 971.7
С 3 16 км 2/2 1200 м +25.0 +13.0 47 +27 +40 жарко 971.4
З 3 16 км 5/5 1200 м +25.0 +13.0 47 +27 +34 жарко 971.4
СЗ 5
{9}
16 км 8/5 1650 m
[Ac]
+25.0 +13.0 47 +27 +29 жарко 971.4
СЗ 4 16 км 2/2 1950 м +26.0 +13.0 45 +28 +33 жарко 971.4
СЗ 4 16 км 2/0 2100 m
[Ac]
+26.0 +12.0 42 +27 +31 жарко 971.7
СЗ 3 16 км ясно +25.0 +13.0 47 +27 +29 жарко 971.7
З 3 16 км ясно +22.0 +13.0 57 +25 +25 комфорт 972.1
З 3 16 км ясно +21.0 +13.0 60 +24 +24 комфорт 972.4
штиль 0 16 км ясно +20.0 +14.0 68 +22 +22 комфорт 973.0
штиль 0 16 км ясно +19.0 +14.0 73 +20 +20 973.0
штиль 0 16 км ясно +18.0 +14.0 77 +18 +18 973.0
ЮЗ 2 16 км ясно +17.0 +14.0 82 +17 +17 973.0
штиль 0 16 км ясно +17.0 +14.0 82 +17 +17 973.0
штиль 0 16 км ясно +17.0 +14.0 82 +17 +17 973.0
штиль 0 16 км ясно +16.0 +14.0 88 +16 +16 973.0
штиль 0 16 км ясно +16.0 +14.0 88 +16 +16 973.4
штиль 0 16 км ясно +15.0 +14.0 94 +15 +15 973.0
штиль 0 16 км ясно +15.0 +14.0 94 +15 +15 973.4
штиль 0 16 км ясно +15.0 +14.0 94 +15 +15 973.7
штиль 0 16 км ясно +15.0 +14.0 94 +15 +15 973.4
штиль 0 16 км ясно +14.0 +14.0 100 +13 +13 973.7
штиль 0 16 км ясно +14.0 +13.0 94 +14 +14 973.7
штиль 0 16 км ясно +15.0 +14.0 94 +15 +15 974.0
ЮЗ 2 16 км ясно +14.0 +13.0 94 +13 +13 974.3
Местоположение метеостанции Arnold Palmer Regional Airport: широта 40.2800 долгота -79.4000 высота над уровнем моря 361 м.
В архиве по умолчанию представлена погода в Латробе за последние 1-2 суток. Обновление информации о фактической погоде в базе происходит ежечасно! Архивные данные за месяц целиком и за предыдущие месяцы Вы можете получить, выбрав интересующий диапазон дат из раскрывающегося списка и нажав кнопку "Ввод!".
Внимание! Архив погоды МЕТАР в базе сайта по станциям, не включенным в климатический монитор, хранится не более 60 дней. Нет смысла пытаться выбрать более раннюю дату.
*Определитесь, кто Вы:
Внимание! Время в таблицах - местное (без учета летнего времени). Для получения всемирного времени необходимо вычесть поправку, которая равна -5 ч.
Смотрите также архив погоды в соседних городах и на ближайших метеорологических станциях:
Партнеры нашего сайта:      
Пояснения к столбцам:
  • Ветер - указаны скорость ветра в м/с - средняя за 10 мин, порывы в срок и между сроками (в фигурных скобках) и направление, откуда дует ветер: С - северный,
  • СВ - северо-восточный, В - восточный, ЮВ - юго-восточный, Ю - южный, ЮЗ - юго-западный, З - западный, СЗ - северо-западный.
  • Видимость - горизонтальная дальность видимости в метрах или километрах. При видимости от 1 до 10 км при отсутствии осадков обычно наблюдается дымка, при ухудшении видимости до 1 км и менее - туман. В сухую погоду видимость может ухудшаться дымом, пылью или мглою.
  • Явления - указаны атмосферные явления, наблюдавшиеся в срок или в последний час перед сроком; фигурными скобками обозначены явления, наблюдавшиеся между сроками (за 1-3 часа до срока); квадратными скобками обозначены град или гололедные отложения с указанием их диаметра в мм.
  • Облачность - указаны через наклонную черту общая и нижняя облачность в баллах и высота нижней границы облаков в метрах; квадратными скобками обозначены формы облаков: Ci - перистые, Cs - перисто-слоистые, Cc - перисто-кучевые, Ac - высококучевые, As - высокослоистые, Sc - слоисто-кучевые, Ns - слоисто-дождевые, Cu - кучевые, Cb - кучево-дождевые. Подробнее классификацию облаков см. в Атласе облаков (PDF).
  • T - Температура воздуха - температура, измеренная на высоте 2 м над землей.
  • Td - Температура точки росы - температура, при понижении до которой содержащийся в воздухе водяной пар достигнет насыщения.
  • f - Относительная влажность воздуха - влажноcть воздуха, измеренная на высоте 2 м над землей.
  • Te - Эффективная температура - температура, которую ощущает одетый по сезону человек в тени. Характеристика душности погоды. При расчете учитывается влияние влажности воздуха и скорости ветра на теплоощущения человека.
  • Tes - Эффективная температура на солнце - температура, которую ощущает человек, с поправкой на солнечный нагрев. Характеристика знойности погоды. Зависит от высоты солнца над горизонтом, облачности и скорости ветра. Ночью, в пасмурную погоду, а также при ветре 12 м/с и более поправка равна нулю.
  • P - Атмосферное давление - приведенное к уровню моря атмосферное давление.
  • Po - Атмосферное давление - измеренное на уровне метеостанции атмосферное давление.
  • Tmin - Минимальная температура - минимум температуры воздуха на высоте 2 м над землей.
  • Tmax - Максимальная температура - максимум температуры воздуха на высоте 2 м над землей.
  • R - Количество осадков - Количество выпавших осадков за период времени, мм. При наведении курсора мыши на число - период времени, за который выпало указанное количество осадков.
  • R24 - Количество осадков - Количество выпавших осадков за 24 часа, мм.
  • S - Снежный покров - Высота снежного покрова, см. При наведении курсора мыши на число - состояние снежного покрова и степень покрытия местности в баллах.